Location: Helensbirgh
(56.0153°N, 4.7348°W)
Time: 14:28:51
(UTC+00:00)

Envisat - Visible Passes

Search period start: 19 February 2019 00:00
Search period end: 01 March 2019 00:00
Orbit: 764 x 766 km, 98.2° (Epoch: 19 February)

Date Brightness Start Highest point End Pass type
(mag) Time Alt. Az. Time Alt. Az. Time Alt. Az.
19 Feb 6.1 06:32:17 10° NE 06:35:29 17° E 06:38:41 10° SE visible
19 Feb 4.5 19:33:04 10° SSW 19:37:47 37° W 19:42:32 10° NNW visible
20 Feb 3.4 18:55:47 10° S 19:00:51 69° WSW 19:05:58 10° NNW visible
20 Feb 6.0 20:38:20 10° WSW 20:40:52 14° W 20:43:23 10° NW visible
21 Feb 3.0 18:19:03 10° SSE 18:24:05 67° ENE 18:29:09 10° NNW visible
21 Feb 5.3 19:59:26 10° SW 20:03:35 25° W 20:07:46 10° NW visible
22 Feb 6.3 06:21:32 10° NE 06:24:06 14° E 06:26:40 10° ESE visible
22 Feb 4.2 19:21:39 10° S 19:26:30 45° W 19:31:24 10° NNW visible
23 Feb 3.1 18:44:31 10° SSE 18:49:37 82° WSW 18:54:45 10° NNW visible
23 Feb 5.9 20:26:19 10° WSW 20:29:28 16° W 20:32:39 10° NW visible
24 Feb 5.9 06:46:11 10° NE 06:50:02 21° E 06:53:52 10° SE visible
24 Feb 3.1 18:07:56 10° SE 18:12:54 57° ENE 18:17:54 10° N visible
24 Feb 5.0 19:47:50 10° SSW 19:52:15 29° W 19:56:42 10° NNW visible
25 Feb 6.5 06:11:08 10° ENE 06:12:42 11° E 06:14:15 10° E visible
25 Feb 3.9 19:10:16 10° S 19:15:14 54° W 19:20:15 10° NNW visible
25 Feb 6.3 20:54:46 10° W 20:55:28 10° W 20:56:10 10° WNW visible
26 Feb 3.0 18:33:18 10° SSE 18:38:24 85° ENE 18:43:32 10° NNW visible
26 Feb 5.7 20:14:27 10° SW 20:18:06 20° W 20:21:46 10° NW visible
27 Feb 6.1 06:35:15 10° NE 06:38:40 18° E 06:42:04 10° SE visible
27 Feb 4.7 19:36:18 10° SSW 19:40:57 35° W 19:45:37 10° NNW visible
28 Feb 3.5 18:58:56 10° S 19:03:58 64° WSW 19:09:04 10° NNW visible
28 Feb 6.1 20:41:52 10° WSW 20:44:03 13° W 20:46:15 10° NW visible
